Retour au catalogue

STARLINK-3788

ActifCommunicationsVLEO
NORAD 52271·PAYLOAD·🇺🇸 United States

Lancé Apr 21, 2022 depuis Cape Canaveral Space Force Station

Loading…

Prochains Passages (prochaines 24 heures)

TLE

FraisSource: CelesTrak SupGP

Époque: Sep 15, 2026, 02:38 UTC

1 52271C 22041L   26258.11020833  .00046572  00000+0  13761-2 0  2588
2 52271  53.1592 332.7857 0001134  79.6823  14.6434 15.34364038    13

Suivez STARLINK-3788 en temps réel avec AllMySat

Download on the App Store